Kelso-Longview, WA
on Tuesday, February 19, 2013

Tuesday
Previous Day Next Day
Daily Summary
 ActualAverage (KSPB)Record (KSPB)
Temperature
Mean Temperature °F / °C °F / °C  
Max Temperature 53°F / 12°C °F / °C 55°F / 12°C (2000)
Min Temperature 32°F / 0°C °F / °C 17°F / -8°C (2006)
Degree Days
Heating Degree Days 22    
Month to date heating degree days  
Since 1 July heating degree days  
Cooling Degree Days 0    
Month to date cooling degree days  
Year to date cooling degree days  
Moisture
Dew Point 35°F / 2°C   
Average Humidity 75    
Maximum Humidity 93    
Minimum Humidity 47    
Precipitation
Precipitation 0.03 in / 0.76 cm in / cm 0.22 in / 0.56 cm (2002)
Month to date precipitation  
Year to date precipitation  
Wind
Wind Speed 4 mph / 6 km/h   
Max Wind Speed 10 mph / 16 km/h   
Max Gust Speed mph / km/h   
Visibility 10 miles / 16 kilometers   
Events     

Key: T is trace of precipitation, MM is missing value
Source: NWS Daily Summary
Time(PST)TemperatureDew PointHumidity Pressure Visibility Wind DirectionWind SpeedGust SpeedPrecipitationEvents Conditions
12:15 AM 41.0°F / 5.0°C 35.6°F / 2.0°C 81% 29.74 in / 1007.0 hPa 10.0 miles / 16.1 kilometers ESE 3.5 mph / 5.6 km/h - N/A   Overcast
12:35 AM 41.0°F / 5.0°C 35.6°F / 2.0°C 81% 29.74 in / 1007.0 hPa 10.0 miles / 16.1 kilometers ESE 6.9 mph / 11.1 km/h - N/A   Overcast
12:55 AM 41.0°F / 5.0°C 35.6°F / 2.0°C 81% 29.73 in / 1006.7 hPa 10.0 miles / 16.1 kilometers ESE 4.6 mph / 7.4 km/h - N/A   Overcast
1:15 AM 41.0°F / 5.0°C 35.6°F / 2.0°C 81% 29.73 in / 1006.7 hPa 10.0 miles / 16.1 kilometers SSE 5.8 mph / 9.3 km/h - N/A   Overcast
1:35 AM 41.0°F / 5.0°C 35.6°F / 2.0°C 81% 29.73 in / 1006.7 hPa 10.0 miles / 16.1 kilometers ESE 4.6 mph / 7.4 km/h - 0.01 in / 0.3 cm   Overcast
1:55 AM 41.0°F / 5.0°C 35.6°F / 2.0°C 81% 29.73 in / 1006.7 hPa 10.0 miles / 16.1 kilometers Calm Calm - 0.01 in / 0.3 cm   Overcast
2:15 AM 39.2°F / 4.0°C 35.6°F / 2.0°C 87% 29.73 in / 1006.7 hPa 10.0 miles / 16.1 kilometers SSE 3.5 mph / 5.6 km/h - N/A   Overcast
2:35 AM 41.0°F / 5.0°C 35.6°F / 2.0°C 81% 29.72 in / 1006.3 hPa 10.0 miles / 16.1 kilometers ESE 4.6 mph / 7.4 km/h - 0.01 in / 0.3 cm   Overcast
2:55 AM 41.0°F / 5.0°C 35.6°F / 2.0°C 81% 29.72 in / 1006.3 hPa 10.0 miles / 16.1 kilometers ESE 4.6 mph / 7.4 km/h - 0.02 in / 0.5 cm   Overcast
3:55 AM 39.2°F / 4.0°C 35.6°F / 2.0°C 87% 29.72 in / 1006.3 hPa 10.0 miles / 16.1 kilometers SE 3.5 mph / 5.6 km/h - N/A   Overcast
4:15 AM 39.2°F / 4.0°C 35.6°F / 2.0°C 87% 29.72 in / 1006.3 hPa 10.0 miles / 16.1 kilometers Calm Calm - N/A   Overcast
4:35 AM 39.2°F / 4.0°C 35.6°F / 2.0°C 87% 29.72 in / 1006.3 hPa 10.0 miles / 16.1 kilometers NNE 3.5 mph / 5.6 km/h - N/A   Overcast
4:55 AM 39.2°F / 4.0°C 35.6°F / 2.0°C 87% 29.72 in / 1006.3 hPa 10.0 miles / 16.1 kilometers Calm Calm - N/A   Overcast
5:15 AM 39.2°F / 4.0°C 35.6°F / 2.0°C 87% 29.73 in / 1006.7 hPa 10.0 miles / 16.1 kilometers Calm Calm - N/A   Overcast
5:35 AM 39.2°F / 4.0°C 35.6°F / 2.0°C 87% 29.73 in / 1006.7 hPa 10.0 miles / 16.1 kilometers Calm Calm - N/A   Overcast
5:55 AM 39.2°F / 4.0°C 35.6°F / 2.0°C 87% 29.74 in / 1007.0 hPa 10.0 miles / 16.1 kilometers Calm Calm - N/A   Overcast
6:15 AM 39.2°F / 4.0°C 35.6°F / 2.0°C 87% 29.74 in / 1007.0 hPa 10.0 miles / 16.1 kilometers Calm Calm - N/A   Overcast
6:35 AM 39.2°F / 4.0°C 35.6°F / 2.0°C 87% 29.75 in / 1007.3 hPa 10.0 miles / 16.1 kilometers Calm Calm - N/A   Overcast
6:55 AM 39.2°F / 4.0°C 35.6°F / 2.0°C 87% 29.75 in / 1007.3 hPa 10.0 miles / 16.1 kilometers Calm Calm - N/A   Overcast
7:15 AM 39.2°F / 4.0°C 35.6°F / 2.0°C 87% 29.76 in / 1007.7 hPa 10.0 miles / 16.1 kilometers SE 4.6 mph / 7.4 km/h - N/A   Overcast
7:35 AM 39.2°F / 4.0°C 35.6°F / 2.0°C 87% 29.76 in / 1007.7 hPa 10.0 miles / 16.1 kilometers Calm Calm - N/A   Overcast
7:55 AM 39.2°F / 4.0°C 35.6°F / 2.0°C 87% 29.76 in / 1007.7 hPa 10.0 miles / 16.1 kilometers Calm Calm - N/A   Overcast
8:15 AM 39.2°F / 4.0°C 37.4°F / 3.0°C 93% 29.77 in / 1008.0 hPa 10.0 miles / 16.1 kilometers Calm Calm - N/A   Overcast
8:35 AM 41.0°F / 5.0°C 37.4°F / 3.0°C 87% 29.78 in / 1008.4 hPa 10.0 miles / 16.1 kilometers NW 3.5 mph / 5.6 km/h - N/A   Mostly Cloudy
8:55 AM 42.8°F / 6.0°C 37.4°F / 3.0°C 81% 29.77 in / 1008.0 hPa 10.0 miles / 16.1 kilometers NNW 5.8 mph / 9.3 km/h - N/A   Scattered Clouds
9:15 AM 42.8°F / 6.0°C 37.4°F / 3.0°C 81% 29.78 in / 1008.4 hPa 10.0 miles / 16.1 kilometers NW 5.8 mph / 9.3 km/h - N/A   Clear
9:35 AM 42.8°F / 6.0°C 37.4°F / 3.0°C 81% 29.78 in / 1008.4 hPa 10.0 miles / 16.1 kilometers NW 5.8 mph / 9.3 km/h - N/A   Clear
10:15 AM 44.6°F / 7.0°C 37.4°F / 3.0°C 76% 29.79 in / 1008.7 hPa 10.0 miles / 16.1 kilometers NNW 9.2 mph / 14.8 km/h - N/A   Scattered Clouds
10:35 AM 46.4°F / 8.0°C 37.4°F / 3.0°C 71% 29.79 in / 1008.7 hPa 10.0 miles / 16.1 kilometers NNW 9.2 mph / 14.8 km/h - N/A   Clear
10:55 AM 46.4°F / 8.0°C 37.4°F / 3.0°C 71% 29.79 in / 1008.7 hPa 10.0 miles / 16.1 kilometers NW 9.2 mph / 14.8 km/h - N/A   Clear
11:15 AM 46.4°F / 8.0°C 37.4°F / 3.0°C 71% 29.79 in / 1008.7 hPa 10.0 miles / 16.1 kilometers NW 8.1 mph / 13.0 km/h - N/A   Clear
11:35 AM 48.2°F / 9.0°C 37.4°F / 3.0°C 66% 29.79 in / 1008.7 hPa 10.0 miles / 16.1 kilometers NW 9.2 mph / 14.8 km/h - N/A   Clear
11:55 AM 48.2°F / 9.0°C 37.4°F / 3.0°C 66% 29.80 in / 1009.0 hPa 10.0 miles / 16.1 kilometers WNW 5.8 mph / 9.3 km/h - N/A   Clear
12:15 PM 50.0°F / 10.0°C 37.4°F / 3.0°C 62% 29.80 in / 1009.0 hPa 10.0 miles / 16.1 kilometers WNW 6.9 mph / 11.1 km/h - N/A   Clear
12:35 PM 50.0°F / 10.0°C 35.6°F / 2.0°C 58% 29.80 in / 1009.0 hPa 10.0 miles / 16.1 kilometers NNW 8.1 mph / 13.0 km/h - N/A   Clear
12:55 PM 51.8°F / 11.0°C 37.4°F / 3.0°C 58% 29.80 in / 1009.0 hPa 10.0 miles / 16.1 kilometers NW 8.1 mph / 13.0 km/h - N/A   Clear
1:15 PM 51.8°F / 11.0°C 35.6°F / 2.0°C 54% 29.81 in / 1009.4 hPa 10.0 miles / 16.1 kilometers NW 5.8 mph / 9.3 km/h - N/A   Clear
1:35 PM 51.8°F / 11.0°C 35.6°F / 2.0°C 54% 29.81 in / 1009.4 hPa 10.0 miles / 16.1 kilometers NW 6.9 mph / 11.1 km/h - N/A   Clear
1:55 PM 51.8°F / 11.0°C 35.6°F / 2.0°C 54% 29.81 in / 1009.4 hPa 10.0 miles / 16.1 kilometers WNW 5.8 mph / 9.3 km/h - N/A   Clear
2:15 PM 53.6°F / 12.0°C 33.8°F / 1.0°C 47% 29.81 in / 1009.4 hPa 10.0 miles / 16.1 kilometers North 8.1 mph / 13.0 km/h - N/A   Clear
2:35 PM 51.8°F / 11.0°C 32.0°F / 0.0°C 47% 29.81 in / 1009.4 hPa 10.0 miles / 16.1 kilometers NW 6.9 mph / 11.1 km/h - N/A   Clear
2:55 PM 51.8°F / 11.0°C 33.8°F / 1.0°C 50% 29.82 in / 1009.7 hPa 10.0 miles / 16.1 kilometers NW 10.4 mph / 16.7 km/h - N/A   Partly Cloudy
3:15 PM 51.8°F / 11.0°C 32.0°F / 0.0°C 47% 29.82 in / 1009.7 hPa 10.0 miles / 16.1 kilometers NNW 6.9 mph / 11.1 km/h - N/A   Mostly Cloudy
4:35 PM 51.8°F / 11.0°C 33.8°F / 1.0°C 50% 29.84 in / 1010.4 hPa 10.0 miles / 16.1 kilometers West 5.8 mph / 9.3 km/h - N/A   Mostly Cloudy
4:55 PM 50.0°F / 10.0°C 33.8°F / 1.0°C 54% 29.85 in / 1010.7 hPa 10.0 miles / 16.1 kilometers WNW 5.8 mph / 9.3 km/h - N/A   Mostly Cloudy
5:15 PM 50.0°F / 10.0°C 33.8°F / 1.0°C 54% 29.85 in / 1010.7 hPa 10.0 miles / 16.1 kilometers WNW 4.6 mph / 7.4 km/h - N/A   Mostly Cloudy
5:35 PM 48.2°F / 9.0°C 33.8°F / 1.0°C 58% 29.86 in / 1011.1 hPa 10.0 miles / 16.1 kilometers WNW 3.5 mph / 5.6 km/h - N/A   Overcast
5:55 PM 48.2°F / 9.0°C 33.8°F / 1.0°C 58% 29.87 in / 1011.4 hPa 10.0 miles / 16.1 kilometers NW 4.6 mph / 7.4 km/h - N/A   Scattered Clouds
6:15 PM 46.4°F / 8.0°C 33.8°F / 1.0°C 62% 29.88 in / 1011.7 hPa 10.0 miles / 16.1 kilometers WNW 4.6 mph / 7.4 km/h - N/A   Clear
6:35 PM 44.6°F / 7.0°C 33.8°F / 1.0°C 66% 29.89 in / 1012.1 hPa 10.0 miles / 16.1 kilometers WNW 3.5 mph / 5.6 km/h - N/A   Clear
6:55 PM 44.6°F / 7.0°C 33.8°F / 1.0°C 66% 29.91 in / 1012.8 hPa 10.0 miles / 16.1 kilometers NW 5.8 mph / 9.3 km/h - N/A   Partly Cloudy
7:15 PM 44.6°F / 7.0°C 33.8°F / 1.0°C 66% 29.91 in / 1012.8 hPa 10.0 miles / 16.1 kilometers NNE 4.6 mph / 7.4 km/h - N/A   Partly Cloudy
7:55 PM 41.0°F / 5.0°C 33.8°F / 1.0°C 76% 29.93 in / 1013.4 hPa 10.0 miles / 16.1 kilometers Calm Calm - N/A   Clear
8:15 PM 39.2°F / 4.0°C 33.8°F / 1.0°C 81% 29.94 in / 1013.8 hPa 10.0 miles / 16.1 kilometers NNE 4.6 mph / 7.4 km/h - N/A   Clear
8:35 PM 39.2°F / 4.0°C 33.8°F / 1.0°C 81% 29.95 in / 1014.1 hPa 10.0 miles / 16.1 kilometers NNE 4.6 mph / 7.4 km/h - N/A   Clear
8:55 PM 39.2°F / 4.0°C 33.8°F / 1.0°C 81% 29.96 in / 1014.4 hPa 10.0 miles / 16.1 kilometers NNE 5.8 mph / 9.3 km/h - N/A   Clear
9:15 PM 37.4°F / 3.0°C 33.8°F / 1.0°C 87% 29.96 in / 1014.4 hPa 10.0 miles / 16.1 kilometers Calm Calm - N/A   Clear
9:35 PM 35.6°F / 2.0°C 32.0°F / 0.0°C 87% 29.97 in / 1014.8 hPa 10.0 miles / 16.1 kilometers NNE 3.5 mph / 5.6 km/h - N/A   Clear
10:15 PM 33.8°F / 1.0°C 30.2°F / -1.0°C 87% 29.99 in / 1015.5 hPa 10.0 miles / 16.1 kilometers Calm Calm - N/A   Clear
10:35 PM 33.8°F / 1.0°C 30.2°F / -1.0°C 87% 30.00 in / 1015.8 hPa 10.0 miles / 16.1 kilometers Calm Calm - N/A   Clear
10:55 PM 33.8°F / 1.0°C 30.2°F / -1.0°C 87% 30.00 in / 1015.8 hPa 10.0 miles / 16.1 kilometers Calm Calm - N/A   Clear
11:15 PM 32.0°F / 0.0°C 28.4°F / -2.0°C 87% 30.01 in / 1016.1 hPa 10.0 miles / 16.1 kilometers Calm Calm - N/A   Clear
11:35 PM 33.8°F / 1.0°C 30.2°F / -1.0°C 87% 30.01 in / 1016.1 hPa 10.0 miles / 16.1 kilometers Calm Calm - N/A   Clear
11:55 PM 33.8°F / 1.0°C 28.4°F / -2.0°C 81% 30.02 in / 1016.5 hPa 10.0 miles / 16.1 kilometers Calm Calm - N/A   Clear
Moon Phase
Feb. 19 Feb. 25 Mar. 04 Mar. 11 Mar. 19
Sunrise:07:07 AM (PST) Moon Rise:12:09 PM (PST)2/19
Sunset:05:44 PM (PST) Moon Set:02:54 AM (PST)2/19

Copyright © 2014 The Weather Underground, Inc.